Location: Ch?enovice
(49.7164°N, 15.2160°E)
Time: 11:21:57
(UTC+00:00)

USA 267 - Pass Details

Date: 10 November 2025
Orbit: 1100 x 1108 km, 123.0° (Epoch: 21 November)

Event Time Altitude Azimuth Distance (km) Brightness Sun altitude
Rises 03:27:11 0° 57° (ENE) 3,924 7.1 -25.2°
Reaches altitude 10° 03:29:39 10° 57° (ENE) 2,964 6.3 -24.8°
Maximum altitude 03:36:13 84° 331° (NNW) 1,112 3.1 -23.8°
Enters shadow 03:38:42 42° 247° (WSW) 1,525 3.5 -23.4°
